Zurück zum Katalog

ONEWEB-0393

AktivKommunikationPO
NORAD 50473·PAYLOAD·🇬🇧 United Kingdom

Gestartet Dec 27, 2021 von Baikonur Cosmodrome

Loading…

Nächste Überflüge (nächste 24 Stunden)

TLE

AktuellSource: CelesTrak SupGP

Epoche: Sep 14, 2026, 19:48 UTC

1 50473C 21132E   26257.82553655 -.00001718  00000+0 -44311-2 0  2579
2 50473  87.9198 348.0628 0001947 107.0211 314.1223 13.17648090    13

Verfolge ONEWEB-0393 in Echtzeit mit AllMySat

Download on the App Store